Wind_Speed
13 14 15 16 17 17 17 17 17 18 18 17 15 13 12 13 15 17 18 18 17 15 14 14 13 13 12 12 13 14 14 13 12 11 10 9 9 8 8 8 9 9
13 14 14 15 15 16 16 17 18 20 20 19 17 15 13 14 16 18 20 20 19 18 17 16 15 14 14 14 15 15 14 12 11 10 9 8 8 8 8 8 8 8
13 14 14 14 15 15 16 17 19 21 21 21 19 17 16 16 17 19 21 21 21 19 19 18 17 16 16 16 15 14 13 11 10 9 8 8 8 8 8 9 9 9
13 14 14 15 16 16 16 17 19 21 22 23 21 19 18 18 19 19 20 21 20 20 19 18 17 16 16 15 14 13 13 12 11 10 10 10 10 10 10 10 10 10
14 14 15 17 18 18 18 18 20 22 24 24 22 20 19 20 20 19 20 19 19 19 19 18 16 15 14 14 13 13 13 12 12 12 12 12 12 12 12 12 11 11
16 15 16 17 18 19 19 19 21 22 24 24 22 20 20 21 21 20 19 19 18 18 18 17 15 14 13 12 12 12 13 13 14 14 14 13 13 13 13 13 12 11
17 16 17 18 19 20 20 20 21 23 24 24 21 19 21 22 22 21 20 19 18 17 17 16 15 14 13 13 13 13 14 14 14 14 14 13 13 13 13 13 12 12
16 16 15 17 20 21 20 19 21 23 24 23 21 20 22 24 23 22 21 19 18 17 16 16 16 15 15 15 15 15 15 15 14 14 13 13 13 13 13 13 13 14
16 15 14 15 17 18 18 18 20 23 24 23 21 21 23 23 22 21 20 18 17 17 17 17 17 17 17 17 17 17 17 16 15 15 14 14 14 14 14 15 15 16
17 16 16 17 17 16 16 18 20 23 23 22 22 21 21 21 20 20 19 18 18 18 18 18 19 19 18 18 18 18 18 17 17 17 16 16 16 16 16 16 17 17
18 18 20 21 20 18 17 18 20 21 22 22 21 20 19 19 19 19 19 19 19 19 19 20 19 18 17 17 17 17 18 18 19 19 18 18 18 18 18 18 18 19
17 18 18 19 18 18 18 18 18 18 19 21 21 19 19 19 20 20 20 21 21 20 20 18 17 15 15 15 16 17 17 18 19 20 20 18 18 18 19 19 19 20
16 15 15 17 17 16 18 18 17 18 20 20 20 19 19 20 21 21 22 22 21 19 17 16 15 15 15 15 16 17 17 18 19 20 20 20 20 20 20 20 21 22
14 14 15 17 17 17 19 19 19 20 22 23 23 23 23 23 24 23 23 23 22 20 18 17 17 17 17 18 18 18 18 18 18 19 20 21 22 21 21 21 22 23
11 14 15 16 18 19 20 19 17 17 17 20 22 23 25 26 25 24 24 23 21 22 21 20 19 19 20 21 22 22 22 21 21 22 22 22 23 22 22 23 24 24
10 12 14 15 17 17 17 15 13 13 13 14 16 18 20 21 22 23 24 23 21 22 22 22 21 21 21 22 23 24 24 25 25 25 25 25 26 26 25 26 26 26
12 12 14 14 15 16 16 14 13 14 14 14 15 16 17 17 18 20 21 21 21 21 22 23 23 23 23 23 24 24 25 26 25 25 26 28 29 29 29 28 27 27
13 13 14 15 17 19 20 18 16 16 16 16 16 17 17 17 17 17 17 19 20 21 23 25 26 27 26 26 27 27 28 29 29 30 30 30 30 31 30 28 27 27
16 15 15 16 19 20 21 20 18 17 18 18 18 19 20 20 19 20 20 21 23 24 26 28 29 30 30 30 31 31 32 32 32 32 32 32 33 32 31 30 30 31
20 19 19 21 22 22 22 22 20 19 19 20 21 23 23 23 23 23 24 25 27 28 30 31 32 33 33 33 34 34 35 34 32 33 34 36 36 35 34 34 36 38
26 27 28 27 26 25 25 25 26 27 28 27 26 27 27 28 27 27 28 29 31 32 33 34 36 36 36 36 36 36 35 34 35 37 39 39 37 36 37 38 40 42
30 31 32 31 29 29 31 32 34 35 35 32 31 31 32 33 33 32 33 34 35 36 37 37 38 39 38 37 36 34 34 35 37 38 39 39 39 40 41 42 43 45
35 35 35 35 35 35 36 37 38 38 37 35 35 36 37 38 38 38 39 39 39 40 40 41 41 41 39 38 36 35 35 37 39 40 42 44 45 45 45 46 46 47
38 38 38 39 40 40 39 40 41 41 40 39 39 39 40 41 42 43 44 44 44 43 43 42 42 41 40 39 38 39 41 43 45 46 47 48 48 48 47 47 47 48
40 40 40 41 42 41 41 41 42 42 43 43 43 44 45 44 45 46 46 46 45 44 43 42 41 41 41 41 42 45 47 49 50 50 50 49 49 48 47 47 47 48
43 43 43 44 44 43 43 44 45 45 45 45 45 46 46 45 45 45 44 44 43 42 41 41 41 42 44 46 49 51 52 52 52 51 51 50 49 48 48 48 49 50
Wind_Direction
255 260 262 264 266 266 262 258 257 263 269 266 256 253 262 272 274 271 269 267 265 264 264 264 264 263 262 265 271 277 280 280 279 278 278 280 281 281 280 282 284 287
255 259 262 267 272 273 270 264 261 263 267 266 258 250 258 274 279 276 271 268 267 265 261 258 258 260 264 270 276 278 279 278 277 277 279 282 284 284 284 284 284 286
252 257 263 271 279 283 283 275 267 264 265 265 259 250 256 273 281 277 270 266 265 263 259 258 259 263 268 274 277 277 276 275 274 275 278 281 284 285 285 284 284 286
256 264 271 276 281 287 289 283 272 265 264 264 259 251 257 272 280 277 268 263 261 259 257 258 261 266 270 273 274 273 273 273 274 277 280 283 287 287 287 286 286 288
261 266 273 278 282 285 287 283 272 265 263 263 257 249 254 267 273 271 264 258 257 255 255 259 263 267 270 270 269 268 271 274 278 282 285 287 288 288 288 289 289 290
261 264 269 274 278 282 282 277 268 261 260 261 255 244 249 259 264 264 260 256 253 254 256 260 264 268 271 270 268 267 268 272 278 282 286 288 290 291 292 292 291 291
259 262 266 269 273 278 277 268 260 255 255 255 249 239 245 253 257 260 258 253 252 255 258 262 266 270 271 270 269 267 267 271 275 279 284 287 289 291 291 290 289 289
256 256 262 266 268 271 269 259 252 251 251 249 243 237 243 249 252 255 255 253 254 257 261 266 271 272 272 270 269 268 268 270 273 277 282 284 285 285 285 285 285 286
253 249 254 262 263 260 256 250 246 247 248 247 244 243 244 246 249 250 251 253 256 261 265 270 273 274 273 271 269 268 268 269 272 276 278 278 278 278 279 280 283 285
249 242 242 247 248 243 239 238 238 240 242 242 242 242 242 241 243 245 247 252 257 263 268 272 275 276 276 277 276 275 276 277 278 277 275 274 273 274 276 279 284 287
240 238 241 246 248 246 242 238 237 236 236 235 234 235 238 240 243 245 249 254 260 265 270 275 279 282 284 285 284 283 284 283 280 277 275 274 275 277 282 285 288 288
241 247 253 259 261 261 256 249 246 242 235 230 230 234 241 245 247 249 252 255 260 265 271 275 279 282 285 284 282 280 279 278 277 276 276 275 276 278 282 284 285 284
243 249 251 253 254 251 248 243 239 237 233 229 231 239 248 251 252 254 255 256 260 264 269 272 273 275 276 277 278 279 278 277 278 278 276 274 272 273 275 277 279 280
251 255 249 249 250 244 238 234 229 227 228 229 232 237 244 249 252 256 258 260 263 266 267 269 270 271 273 274 277 280 282 282 281 283 282 278 275 275 277 277 278 279
265 264 250 251 258 250 238 234 232 229 231 234 237 241 246 249 252 255 257 259 263 265 267 266 266 268 272 275 279 282 284 283 280 281 284 284 283 282 280 279 279 281
268 262 248 251 258 248 234 233 239 241 243 246 248 249 252 255 257 258 258 258 261 264 266 265 265 266 270 275 281 284 285 284 279 278 281 285 286 286 285 281 279 279
256 250 248 249 246 244 245 245 246 247 247 252 254 252 254 259 262 262 258 255 258 264 267 267 267 269 272 275 278 281 284 283 277 274 279 284 284 285 285 282 278 277
253 247 249 249 245 249 253 249 245 245 245 249 252 251 253 257 262 262 257 254 260 267 272 273 273 273 274 274 275 276 278 279 275 271 275 281 284 285 285 280 277 279
260 250 251 258 256 255 257 257 258 254 248 249 253 253 256 259 260 261 260 261 265 269 273 274 274 274 274 275 276 276 277 278 275 270 273 280 283 283 281 278 276 280
268 260 262 267 262 255 255 259 262 259 256 260 262 261 262 262 260 260 259 261 264 268 271 272 272 273 273 274 275 278 279 279 275 272 276 282 282 278 277 276 275 279
275 273 274 272 265 259 258 259 259 262 267 269 267 264 264 262 260 258 258 260 264 267 269 270 270 270 272 273 275 277 279 278 277 276 279 282 281 278 278 277 276 279
272 272 273 272 267 265 265 265 264 265 267 267 264 264 264 262 260 259 258 259 262 263 265 266 267 268 270 272 273 275 275 276 277 278 279 280 281 281 281 280 279 280
267 265 265 264 263 262 262 264 266 267 267 266 265 264 264 263 262 261 260 260 260 261 263 265 266 267 267 267 268 270 273 275 277 277 277 279 281 282 281 280 280 279
270 268 267 266 264 264 263 264 265 266 265 264 263 263 262 262 262 262 263 264 264 263 263 264 264 264 263 263 266 270 275 279 280 279 279 280 281 280 279 278 277 276
269 268 268 269 267 266 265 265 265 264 264 263 262 262 262 263 263 264 265 265 265 264 262 261 261 262 263 267 272 277 280 281 281 280 279 279 279 277 275 274 273 272
266 264 266 268 267 265 265 266 267 266 265 265 264 264 264 265 265 264 264 263 262 261 260 260 261 263 268 273 277 280 281 281 280 279 278 278 277 275 273 271 271 271
Height
5775 5776 5776 5776 5776 5776 5777 5777 5777 5777 5777 5777 5778 5778 5778 5778 5778 5777 5777 5777 5777 5777 5778 5778 5778 5778 5779 5780 5780 5780 5780 5780 5780 5780 5781 5781 5781 5781 5781 5781 5782 5782
5774 5774 5775 5775 5775 5774 5774 5775 5775 5774 5774 5774 5775 5776 5776 5776 5776 5775 5775 5775 5775 5776 5776 5776 5776 5776 5777 5778 5778 5778 5778 5778 5778 5778 5778 5779 5779 5779 5779 5779 5780 5780
5772 5773 5773 5773 5772 5772 5772 5772 5772 5771 5771 5771 5772 5774 5774 5774 5774 5773 5773 5773 5774 5774 5774 5774 5774 5775 5775 5775 5776 5776 5776 5776 5776 5776 5776 5776 5777 5777 5777 5777 5778 5778
5770 5771 5771 5770 5770 5769 5769 5769 5769 5769 5768 5768 5770 5771 5772 5771 5772 5771 5771 5772 5772 5772 5773 5772 5772 5773 5773 5773 5774 5774 5774 5774 5774 5774 5774 5774 5775 5775 5775 5775 5776 5776
5769 5768 5768 5767 5766 5766 5766 5766 5766 5766 5766 5766 5767 5769 5770 5769 5770 5770 5770 5770 5770 5770 5770 5770 5770 5770 5771 5771 5772 5772 5773 5773 5773 5772 5772 5773 5773 5773 5773 5773 5773 5773
5766 5765 5764 5763 5762 5762 5763 5762 5762 5762 5763 5763 5765 5767 5768 5768 5768 5768 5768 5768 5768 5768 5768 5768 5768 5768 5769 5769 5770 5770 5771 5771 5771 5771 5771 5771 5771 5771 5771 5772 5772 5772
5763 5761 5760 5760 5759 5759 5759 5759 5759 5759 5760 5760 5762 5764 5765 5765 5765 5766 5766 5766 5766 5766 5766 5766 5766 5766 5767 5767 5768 5768 5768 5769 5769 5769 5769 5769 5769 5770 5770 5770 5770 5770
5759 5758 5757 5756 5755 5755 5755 5755 5755 5756 5757 5758 5760 5761 5762 5762 5763 5763 5763 5764 5764 5764 5764 5764 5764 5764 5765 5765 5765 5765 5766 5766 5766 5767 5767 5767 5767 5768 5768 5768 5769 5768
5754 5753 5753 5752 5751 5751 5751 5751 5752 5752 5753 5755 5757 5758 5759 5759 5760 5761 5761 5761 5761 5761 5762 5762 5762 5763 5763 5763 5763 5763 5763 5764 5764 5765 5765 5765 5765 5765 5766 5766 5766 5766
5748 5748 5748 5748 5747 5747 5747 5747 5748 5748 5750 5751 5753 5755 5756 5757 5758 5759 5759 5759 5759 5760 5760 5761 5761 5761 5762 5762 5762 5762 5762 5762 5762 5763 5763 5763 5763 5763 5763 5763 5763 5764
5743 5744 5744 5743 5744 5744 5745 5745 5745 5746 5748 5749 5751 5752 5753 5755 5756 5757 5757 5757 5758 5758 5759 5759 5760 5760 5760 5760 5761 5760 5760 5760 5760 5760 5761 5761 5761 5761 5762 5761 5761 5761
5741 5743 5743 5743 5744 5744 5745 5745 5746 5747 5748 5748 5750 5751 5752 5753 5754 5755 5755 5756 5756 5757 5758 5758 5758 5759 5759 5758 5758 5758 5758 5758 5758 5758 5758 5759 5759 5759 5759 5759 5759 5759
5740 5741 5741 5741 5741 5742 5742 5743 5744 5745 5746 5747 5748 5749 5750 5751 5752 5752 5753 5754 5755 5756 5756 5756 5756 5756 5756 5756 5756 5756 5757 5757 5757 5757 5757 5757 5756 5756 5756 5757 5757 5757
5739 5738 5737 5736 5737 5738 5738 5739 5740 5741 5743 5744 5745 5746 5747 5748 5749 5750 5751 5753 5754 5754 5754 5754 5754 5754 5754 5754 5754 5755 5755 5756 5755 5755 5755 5755 5754 5754 5754 5755 5755 5755
5737 5737 5737 5736 5736 5735 5735 5737 5738 5740 5741 5742 5743 5744 5745 5746 5747 5748 5749 5750 5751 5751 5751 5751 5752 5752 5752 5752 5752 5753 5753 5754 5754 5753 5753 5753 5753 5753 5753 5753 5753 5753
5735 5735 5735 5736 5735 5734 5734 5737 5739 5740 5741 5741 5742 5742 5743 5744 5746 5746 5747 5748 5748 5748 5748 5748 5748 5749 5749 5749 5749 5749 5750 5751 5751 5751 5751 5751 5751 5750 5750 5750 5750 5750
5733 5734 5733 5733 5733 5733 5733 5735 5737 5737 5738 5739 5740 5740 5741 5742 5743 5744 5744 5744 5745 5745 5745 5744 5745 5745 5745 5745 5746 5746 5747 5747 5747 5748 5748 5748 5748 5748 5747 5747 5747 5748
5730 5732 5732 5732 5732 5731 5731 5732 5733 5734 5735 5736 5737 5738 5739 5740 5741 5741 5741 5742 5742 5742 5741 5741 5741 5741 5742 5742 5743 5743 5744 5744 5744 5744 5744 5745 5745 5745 5744 5744 5744 5744
5728 5729 5729 5729 5729 5729 5729 5729 5730 5731 5732 5732 5733 5735 5736 5737 5738 5739 5739 5739 5739 5739 5738 5738 5737 5738 5738 5739 5738 5739 5740 5740 5740 5740 5740 5741 5741 5741 5740 5740 5740 5740
5726 5727 5728 5727 5727 5727 5726 5726 5728 5729 5728 5728 5730 5731 5732 5733 5734 5735 5735 5735 5735 5735 5735 5734 5734 5733 5734 5734 5734 5734 5734 5735 5735 5735 5736 5736 5736 5736 5736 5736 5736 5735
5722 5723 5723 5723 5724 5724 5724 5724 5725 5725 5724 5724 5726 5727 5727 5728 5729 5730 5730 5731 5730 5730 5730 5730 5729 5729 5729 5729 5729 5729 5729 5729 5730 5730 5730 5730 5731 5731 5731 5731 5731 5731
5717 5717 5718 5718 5719 5720 5720 5720 5719 5719 5718 5719 5721 5721 5722 5722 5723 5724 5725 5725 5725 5725 5725 5725 5725 5724 5724 5724 5724 5724 5724 5724 5724 5724 5724 5725 5725 5726 5725 5726 5726 5725
5710 5711 5712 5712 5713 5715 5715 5715 5713 5712 5712 5714 5715 5715 5716 5717 5717 5718 5718 5718 5719 5719 5719 5719 5718 5718 5719 5718 5718 5718 5718 5718 5718 5718 5719 5719 5720 5720 5719 5719 5719 5719
5704 5705 5706 5706 5707 5708 5709 5709 5708 5708 5708 5708 5709 5709 5710 5710 5711 5711 5712 5712 5713 5713 5713 5712 5712 5712 5712 5712 5712 5712 5712 5711 5711 5711 5712 5713 5714 5713 5713 5713 5713 5712
5699 5699 5700 5701 5701 5701 5701 5701 5701 5702 5702 5702 5702 5702 5703 5703 5704 5704 5705 5705 5706 5706 5706 5705 5705 5705 5705 5705 5705 5705 5705 5704 5703 5703 5705 5706 5707 5706 5706 5706 5706 5706
5693 5693 5694 5694 5694 5694 5694 5694 5693 5694 5694 5694 5694 5695 5695 5695 5695 5696 5697 5697 5698 5699 5699 5699 5699 5698 5699 5699 5698 5698 5697 5696 5696 5695 5697 5699 5700 5699 5700 5700 5699 5699